World > North America > United States > Illinois

Hourly New Minden, IL Regional Weather

Feedback E-mail the Weather

Quick WX

New Minden, IL Weather Maps

°F °C°F °C
New Minden Weather Map
UTC Time: 7/1/2022, 13:08
Your Time:

New Minden, IL Regional Weather

Expires:202207011400;;493856
ASUS43 KLOT 011303
RWRIL 

ILLINOIS REGIONAL WEATHER ROUNDUP
NATIONAL WEATHER SERVICE CHICAGO/ROMEOVILLE IL
800 AM CDT FRI JUL 01 2022

NOTE: "FAIR" INDICATES FEW OR NO CLOUDS BELOW 12,000 FEET WITH NO
SIGNIFICANT WEATHER AND/OR OBSTRUCTIONS TO VISIBILITY.

* THESE STATIONS ARE NOT UNDER NWS QUALITY CONTROL. THEY ALSO MAY NOT
  REPORT WEATHER SUCH AS PRECIPITATION OR FOG.


ILZ064>066-069>071-074>076-080>082-084>086-088>090-092>094-011400-
SOUTH-CENTRAL ILLINOIS
  
CITY           SKY/WX    TMP DP  RH WIND       PRES   REMARKS
CARBONDALE     SUNNY     80  72  76 SW10      30.05R HX  84           
EFFINGHAM*     MOSUNNY   79  72  78 S8        30.04S HX  82           
MARION         SUNNY     79  73  83 S8        30.06R HX  82           
MT. VERNON     SUNNY    N/A N/A N/A SW8       30.04S                  
SALEM*         SUNNY     80  73  78 SW8       30.03S HX  84           
METROPOLIS*    SUNNY     78  70  76 SW6       30.09R HX  80           
$$


SKY/WX - Weather  TMP - Temperature  DP - Dew Point  RH - Humidity
WIND - Wind Direction/Speed PRES - Barometric Pressure VSB - Visibility
WCI - Wind Chill Index E13G22 Wind - East Wind 13 mph/Gusts of 22 mph

Trending Headlines

New Minden Radar Loop



New Minden Quick Facts


National Two Day Weather Forecast


E-mail the New Minden Weather Forecast

Voice your opinion or tell us about page issues...